Ostrava, Czech Republic

10:30 AM CET on February 07, 2016 (GMT +0100)
Mosnov

Weather History for LKMT - December, 2013

Change the Weather History Date:

Wednesday, December 4, 2013

  Actual Average (EPKT) Record (EPKT)
Temperature  
Mean Temperature 32 °F -  
Max Temperature 36 °F 36 °F 48 °F (2011)
Min Temperature 27 °F 25 °F 0 °F (2010)
Degree Days  
Heating Degree Days 34    
Moisture  
Dew Point 25 °F    
Average Humidity 78    
Maximum Humidity 86    
Minimum Humidity 54    
Precipitation  
Precipitation 0.00 in 0.04 in - ()
Sea Level Pressure  
Sea Level Pressure 30.21 in    
Wind  
Wind Speed 14 mph ()    
Max Wind Speed 23 mph    
Max Gust Speed -    
Visibility 6.6 miles    
Events      
Averages and records for this station are not official NWS values.
T = Trace of Precipitation, MM = Missing Value Source: Averaged Metar Reports

Daily Weather History Graph

Daily Weather History Graph

Search for Another Location

Airport or City:

Trip Planner

Search our weather history database for the weather conditions in past years. The results will help you decide how hot, cold, wet, or windy it might be!

Date:

Astronomy

Dec. 04, 2013 Rise Set
Actual Time 7:26 AM CET 3:48 PM CET
Civil Twilight 6:49 AM CET 4:25 PM CET
Nautical Twilight 6:08 AM CET 5:06 PM CET
Astronomical Twilight 5:29 AM CET 5:45 PM CET
Moon 8:34 AM CET (12/4) 5:42 PM CET (12/4)
Length of Visible Light 9h 36m
Length of Day
8h 21m
Waxing Crescent, 3% of the Moon is Illuminated
Dec 4
Waxing Crescent
Dec 9
First Quarter
Dec 17
Full
Dec 25
Last Quarter
Jan 1
New

Hourly Weather History & Observations

Time (CET) Temp. Windchill Dew Point Humidity Pressure Visibility Wind Dir Wind Speed Gust Speed Precip Events Conditions
12:00 AM 28.4 °F 18.5 °F 24.8 °F 86% 30.36 in - SW 11.5 mph - N/A   Clear
12:30 AM 28.4 °F 18.5 °F 24.8 °F 86% 30.36 in - SW 11.5 mph - N/A   Clear
1:00 AM 29 °F - 24 °F 74% 30.41 in 11 mi SW 11.2 mph - -   Clear
1:00 AM 28.4 °F 18.5 °F 24.8 °F 86% 30.33 in - SW 11.5 mph - N/A   Clear
1:30 AM 30.2 °F 20.8 °F 24.8 °F 80% 30.33 in - SW 11.5 mph - N/A   Clear
2:00 AM 30.2 °F 19.3 °F 24.8 °F 80% 30.33 in - SW 15.0 mph - N/A   Clear
2:30 AM 30.2 °F 20.2 °F 24.8 °F 80% 30.33 in - WSW 12.7 mph - N/A   Clear
3:00 AM 30.2 °F 20.8 °F 24.8 °F 80% 30.30 in - WSW 11.5 mph - N/A   Clear
3:30 AM 30.2 °F 19.3 °F 24.8 °F 80% 30.30 in - SW 15.0 mph - N/A   Clear
4:00 AM 30.2 °F 19.3 °F 24.8 °F 80% 30.27 in - SW 15.0 mph - N/A   Clear
4:30 AM 28.4 °F 18.0 °F 24.8 °F 86% 30.27 in - SW 12.7 mph - N/A   Clear
5:00 AM 30.2 °F 19.3 °F 24.8 °F 80% 30.27 in - SW 15.0 mph - N/A   Clear
5:30 AM 28.4 °F 16.6 °F 23.0 °F 80% 30.24 in - SW 16.1 mph - N/A   Clear
6:00 AM 28.4 °F 17.5 °F 23.0 °F 80% 30.24 in - SW 13.8 mph - N/A   Clear
6:30 AM 28.4 °F 17.0 °F 24.8 °F 86% 30.24 in - SW 15.0 mph - N/A   Clear
7:00 AM 29 °F - 23 °F 70% 30.31 in 12 mi SW 13.4 mph - -   Clear
7:00 AM 28.4 °F 17.5 °F 23.0 °F 80% 30.24 in - SW 13.8 mph - N/A   Clear
7:30 AM 28.4 °F 17.5 °F 23.0 °F 80% 30.24 in - SW 13.8 mph - N/A   Clear
8:00 AM 28.4 °F 16.6 °F 23.0 °F 80% 30.24 in - SW 16.1 mph - N/A   Clear
8:30 AM 30.2 °F 18.1 °F 24.8 °F 80% 30.21 in - SW 18.4 mph - N/A   Clear
9:00 AM 32.0 °F 20.8 °F 24.8 °F 75% 30.21 in - SW 17.3 mph - N/A   Clear
9:30 AM 32.0 °F 20.5 °F 24.8 °F 75% 30.21 in - SW 18.4 mph - N/A   Clear
10:00 AM 33.8 °F 22.8 °F 24.8 °F 70% 30.21 in - SW 18.4 mph - N/A   Clear
10:30 AM 33.8 °F 22.8 °F 24.8 °F 70% 30.21 in - SW 18.4 mph - N/A   Clear
11:00 AM 35.6 °F 25.5 °F 24.8 °F 65% 30.18 in - SW 17.3 mph - N/A   Clear
11:30 AM 35.6 °F 24.2 °F 24.8 °F 65% 30.18 in - SW 21.9 mph - N/A   Clear
12:00 PM 35.6 °F 24.8 °F 24.8 °F 65% 30.15 in - SW 19.6 mph - N/A   Clear
12:30 PM 35.6 °F 24.0 °F 24.8 °F 65% 30.15 in - SW 23.0 mph - N/A   Clear
1:00 PM 36 °F - 25 °F 54% 30.19 in 16 mi SW 22.4 mph - -   Clear
1:00 PM 37.4 °F 26.9 °F 26.6 °F 65% 30.12 in - SW 20.7 mph - N/A   Clear
1:30 PM 37.4 °F 27.5 °F 26.6 °F 65% 30.12 in - SW 18.4 mph - N/A   Clear
2:00 PM 35.6 °F 25.9 °F 26.6 °F 70% 30.12 in - SW 16.1 mph - N/A   Clear
2:30 PM 33.8 °F 23.2 °F 26.6 °F 75% 30.12 in - WSW 17.3 mph - N/A   Clear
3:00 PM 33.8 °F 23.2 °F 26.6 °F 75% 30.12 in - SW 17.3 mph - N/A   Clear
3:30 PM 32.0 °F 22.1 °F 26.6 °F 80% 30.12 in - WSW 13.8 mph - N/A   Clear
4:00 PM 30.2 °F 20.8 °F 26.6 °F 86% 30.12 in 4.3 mi WSW 11.5 mph - N/A   Scattered Clouds
4:30 PM 30.2 °F 18.9 °F 26.6 °F 86% 30.12 in 3.7 mi WSW 16.1 mph - N/A   Mostly Cloudy
5:00 PM 30.2 °F 16.8 °F 26.6 °F 86% 30.12 in 4.3 mi SW 23.0 mph - N/A   Mostly Cloudy
5:30 PM 30.2 °F 17.1 °F 26.6 °F 86% 30.12 in 6.2 mi SW 21.9 mph - N/A   Mostly Cloudy
6:00 PM 32.0 °F 20.8 °F 26.6 °F 80% 30.12 in 5.0 mi SW 17.3 mph - N/A   Mostly Cloudy
6:30 PM 30.2 °F 18.5 °F 26.6 °F 86% 30.15 in 5.0 mi SW 17.3 mph - N/A   Mostly Cloudy
7:00 PM 31 °F - 26 °F 76% 30.21 in 5 mi SW 15.7 mph - -   Mist
7:00 PM 30.2 °F 19.3 °F 26.6 °F 86% 30.15 in 5.0 mi SW 15.0 mph - N/A   Overcast
7:30 PM 32.0 °F 21.6 °F 26.6 °F 80% 30.15 in 5.0 mi SW 15.0 mph - N/A   Overcast
8:00 PM 32.0 °F 22.1 °F 26.6 °F 80% 30.15 in 5.6 mi SW 13.8 mph - N/A   Overcast
8:30 PM 32.0 °F 22.5 °F 26.6 °F 80% 30.15 in 6.2 mi SW 12.7 mph - N/A   Overcast
9:00 PM 32.0 °F 23.6 °F 26.6 °F 80% 30.15 in 6.2 mi SW 10.4 mph - N/A   Overcast
9:30 PM 32.0 °F 23.0 °F 26.6 °F 80% 30.15 in 6.2 mi SW 11.5 mph - N/A   Overcast
10:00 PM 32.0 °F 22.5 °F 26.6 °F 80% 30.15 in 6.2 mi SSW 12.7 mph - N/A   Overcast
10:30 PM 32.0 °F 22.1 °F 26.6 °F 80% 30.15 in 6.2 mi SW 13.8 mph - N/A   Overcast
11:00 PM 32.0 °F 22.1 °F 26.6 °F 80% 30.15 in 6.2 mi SSW 13.8 mph - N/A   Overcast
11:30 PM 33.8 °F 23.9 °F 26.6 °F 75% 30.15 in 6.2 mi SSW 15.0 mph - N/A   Overcast